When you browse on this site, cookies collect data to enhance your experience and personalize the content and advertising you see.
Visit our Privacy Policy to learn more. By continuing to use the site, you agree to this use of cookies and data.
  • In Austria
  • List of Countries
  • For 7 days
  • Water Temperature
  • Satellite Maps
  • Weather Map
  • News
  • Weather Widgets
  • user-avatar
    Login

    Hourly Weather Stillwater

    Today, 20 April, Saturday

    Time Temperature Precipitation Wind Pressure Humidity
    00:00 +10°C° 0 mm 0 mps 737 mmHg 62%
    01:00 +11°C° 0 mm 1 mps 737 mmHg 64%
    02:00 +10°C° 0 mm 2 mps 737 mmHg 65%
    03:00 +9°C° 0 mm 2 mps 737 mmHg 67%
    04:00 +9°C° 0 mm 2 mps 737 mmHg 67%
    05:00 +9°C° 0 mm 2 mps 737 mmHg 68%
    06:00 +9°C° 0 mm 2 mps 737 mmHg 69%
    07:00 +11°C° 0 mm 3 mps 737 mmHg 64%
    08:00 +14°C° 0 mm 3 mps 738 mmHg 59%
    09:00 +18°C° 0 mm 4 mps 738 mmHg 54%
    10:00 +20°C° 0 mm 4 mps 737 mmHg 51%
    11:00 +22°C° 0 mm 5 mps 737 mmHg 47%
    12:00 +25°C° 0 mm 5 mps 737 mmHg 44%
    13:00 +24°C° 0 mm 6 mps 736 mmHg 44%
    14:00 +26°C° 0 mm 6 mps 736 mmHg 44%
    15:00 +27°C° 0 mm 6 mps 735 mmHg 44%
    16:00 +26°C° 0 mm 6 mps 734 mmHg 50%
    17:00 +25°C° 0 mm 5 mps 734 mmHg 56%
    18:00 +23°C° 0 mm 5 mps 733 mmHg 62%
    19:00 +22°C° 0 mm 5 mps 733 mmHg 64%
    20:00 +20°C° 0 mm 6 mps 733 mmHg 65%
    21:00 +18°C° 0 mm 7 mps 733 mmHg 67%
    22:00 +18°C° 0 mm 7 mps 733 mmHg 65%
    23:00 +18°C° 0 mm 8 mps 733 mmHg 63%

    Tomorrow, 21 April, Sunday

    Time Temperature Precipitation Wind Pressure Humidity
    00:00 +17°C° 0 mm 8 mps 733 mmHg 61%
    01:00 +17°C° 0 mm 8 mps 732 mmHg 63%
    02:00 +17°C° 0 mm 8 mps 732 mmHg 65%
    03:00 +17°C° 0 mm 7 mps 732 mmHg 67%
    04:00 +17°C° 0 mm 8 mps 732 mmHg 68%
    05:00 +17°C° 0 mm 8 mps 733 mmHg 68%
    06:00 +17°C° 0 mm 9 mps 733 mmHg 69%
    07:00 +18°C° 0 mm 9 mps 733 mmHg 68%
    08:00 +19°C° 0 mm 10 mps 733 mmHg 68%
    09:00 +21°C° 0 mm 11 mps 733 mmHg 67%
    10:00 +23°C° 0 mm 11 mps 733 mmHg 63%
    11:00 +24°C° 0 mm 11 mps 733 mmHg 59%
    12:00 +27°C° 0 mm 12 mps 733 mmHg 54%
    13:00 +27°C° 0 mm 12 mps 733 mmHg 54%
    14:00 +28°C° 0 mm 12 mps 732 mmHg 54%
    15:00 +28°C° 0 mm 12 mps 732 mmHg 54%
    16:00 +27°C° 0 mm 10 mps 732 mmHg 58%
    17:00 +27°C° 0 mm 9 mps 731 mmHg 62%
    18:00 +26°C° 0 mm 8 mps 731 mmHg 66%
    19:00 +24°C° 0 mm 9 mps 731 mmHg 67%
    20:00 +24°C° 0 mm 10 mps 732 mmHg 68%
    21:00 +23°C° 0 mm 11 mps 732 mmHg 69%
    22:00 +23°C° 0 mm 10 mps 732 mmHg 71%
    23:00 +22°C° 0 mm 10 mps 732 mmHg 73%

    Day after tomorrow, 22 April, Monday

    Time Temperature Precipitation Wind Pressure Humidity
    00:00 +22°C° 0 mm 10 mps 732 mmHg 75%
    01:00 +22°C° 0 mm 10 mps 732 mmHg 76%
    02:00 +21°C° 0 mm 10 mps 732 mmHg 78%
    03:00 +21°C° 0 mm 10 mps 732 mmHg 79%
    04:00 +19°C° 0 mm 9 mps 732 mmHg 82%
    05:00 +18°C° 0 mm 8 mps 733 mmHg 84%
    06:00 +18°C° 0 mm 8 mps 733 mmHg 86%
    07:00 +20°C° 0 mm 8 mps 734 mmHg 82%
    08:00 +22°C° 0 mm 8 mps 734 mmHg 78%
    09:00 +23°C° 0 mm 8 mps 735 mmHg 74%
    10:00 +24°C° 0 mm 7 mps 735 mmHg 70%
    11:00 +26°C° 0 mm 6 mps 736 mmHg 66%
    12:00 +28°C° 0 mm 6 mps 736 mmHg 61%
    13:00 +28°C° 0 mm 5 mps 736 mmHg 60%
    14:00 +28°C° 0 mm 5 mps 735 mmHg 59%
    15:00 +29°C° 0 mm 4 mps 735 mmHg 59%
    16:00 +28°C° 0.1 mm 4 mps 735 mmHg 64%
    17:00 +27°C° 0.1 mm 3 mps 735 mmHg 70%
    18:00 +26°C° 0.1 mm 2 mps 735 mmHg 76%
    19:00 +25°C° 1 mm 3 mps 735 mmHg 80%
    20:00 +22°C° 1 mm 3 mps 735 mmHg 84%
    21:00 +21°C° 1 mm 3 mps 736 mmHg 88%
    22:00 +21°C° 1.9 mm 4 mps 736 mmHg 89%
    23:00 +20°C° 1.9 mm 4 mps 736 mmHg 91%

    23 April, Tuesday

    Time Temperature Precipitation Wind Pressure Humidity
    00:00 +20°C° 1.9 mm 4 mps 736 mmHg 93%
    01:00 +20°C° 4.4 mm 5 mps 736 mmHg 93%
    02:00 +20°C° 4.4 mm 5 mps 735 mmHg 94%
    03:00 +20°C° 4.4 mm 5 mps 735 mmHg 95%
    04:00 +19°C° 1.3 mm 5 mps 735 mmHg 94%
    05:00 +19°C° 1.3 mm 5 mps 736 mmHg 94%
    06:00 +19°C° 1.3 mm 5 mps 736 mmHg 94%
    07:00 +17°C° 0.2 mm 5 mps 737 mmHg 92%
    08:00 +16°C° 0.2 mm 5 mps 737 mmHg 91%
    09:00 +14°C° 0.2 mm 5 mps 738 mmHg 90%
    10:00 +15°C° 0.1 mm 5 mps 738 mmHg 87%
    11:00 +15°C° 0.1 mm 4 mps 738 mmHg 84%
    12:00 +17°C° 0.1 mm 4 mps 738 mmHg 81%
    13:00 +17°C° 0 mm 4 mps 738 mmHg 80%
    14:00 +18°C° 0 mm 4 mps 738 mmHg 79%
    15:00 +19°C° 0 mm 4 mps 738 mmHg 77%
    16:00 +19°C° 0 mm 4 mps 738 mmHg 77%
    17:00 +19°C° 0 mm 4 mps 738 mmHg 77%
    18:00 +19°C° 0 mm 4 mps 738 mmHg 76%
    19:00 +18°C° 0 mm 4 mps 738 mmHg 79%
    20:00 +17°C° 0 mm 4 mps 738 mmHg 81%
    21:00 +15°C° 0 mm 4 mps 738 mmHg 84%
    22:00 +14°C° 0 mm 3 mps 738 mmHg 85%
    23:00 +14°C° 0 mm 3 mps 738 mmHg 86%

    24 April, Wednesday

    Time Temperature Precipitation Wind Pressure Humidity
    00:00 +13°C° 0 mm 3 mps 739 mmHg 87%
    01:00 +13°C° 0 mm 3 mps 738 mmHg 88%
    02:00 +12°C° 0 mm 3 mps 738 mmHg 89%
    03:00 +12°C° 0 mm 3 mps 738 mmHg 89%
    04:00 +11°C° 0 mm 3 mps 738 mmHg 91%
    05:00 +10°C° 0 mm 3 mps 738 mmHg 92%
    06:00 +10°C° 0 mm 3 mps 738 mmHg 94%
    07:00 +12°C° 0 mm 3 mps 739 mmHg 87%
    08:00 +13°C° 0 mm 3 mps 739 mmHg 80%
    09:00 +15°C° 0 mm 4 mps 739 mmHg 74%
    10:00 +17°C° 0 mm 3 mps 739 mmHg 70%
    11:00 +18°C° 0 mm 3 mps 739 mmHg 66%
    12:00 +20°C° 0 mm 3 mps 738 mmHg 63%
    13:00 +20°C° 0 mm 3 mps 738 mmHg 61%
    14:00 +21°C° 0 mm 2 mps 737 mmHg 60%
    15:00 +23°C° 0 mm 2 mps 737 mmHg 58%
    16:00 +21°C° 0 mm 2 mps 736 mmHg 62%
    17:00 +22°C° 0 mm 1 mps 736 mmHg 65%
    18:00 +22°C° 0 mm 1 mps 736 mmHg 69%
    19:00 +20°C° 0 mm 1 mps 736 mmHg 72%
    20:00 +19°C° 0 mm 1 mps 736 mmHg 74%
    21:00 +18°C° 0 mm 1 mps 737 mmHg 77%
    22:00 +16°C° 0 mm 2 mps 736 mmHg 80%
    23:00 +16°C° 0 mm 2 mps 736 mmHg 84%

    25 April, Thursday

    Time Temperature Precipitation Wind Pressure Humidity
    00:00 +15°C° 0 mm 2 mps 736 mmHg 87%
    01:00 +15°C° 0 mm 2 mps 736 mmHg 88%
    02:00 +14°C° 0 mm 2 mps 736 mmHg 90%
    03:00 +14°C° 0 mm 2 mps 735 mmHg 91%
    04:00 +14°C° 0 mm 2 mps 735 mmHg 91%
    05:00 +14°C° 0 mm 1 mps 736 mmHg 91%
    06:00 +14°C° 0 mm 1 mps 736 mmHg 91%
    07:00 +15°C° 0 mm 2 mps 736 mmHg 87%
    08:00 +16°C° 0 mm 2 mps 737 mmHg 84%
    09:00 +17°C° 0 mm 3 mps 737 mmHg 80%
    10:00 +19°C° 0 mm 3 mps 737 mmHg 74%
    11:00 +20°C° 0 mm 4 mps 737 mmHg 68%
    12:00 +22°C° 0 mm 4 mps 737 mmHg 63%
    13:00 +22°C° 0 mm 4 mps 737 mmHg 59%
    14:00 +23°C° 0 mm 4 mps 737 mmHg 56%
    15:00 +25°C° 0 mm 4 mps 737 mmHg 52%
    16:00 +23°C° 0 mm 4 mps 737 mmHg 56%
    17:00 +24°C° 0 mm 3 mps 737 mmHg 60%
    18:00 +22°C° 0 mm 3 mps 737 mmHg 64%
    19:00 +20°C° 0 mm 2 mps 737 mmHg 69%
    20:00 +18°C° 0 mm 2 mps 737 mmHg 73%
    21:00 +16°C° 0 mm 2 mps 738 mmHg 78%
    22:00 +16°C° 0 mm 2 mps 738 mmHg 80%
    23:00 +15°C° 0 mm 1 mps 738 mmHg 82%
    Show more